| time (UTC) | temp F | wind direction | speed knots | gust knots | rain 1hr in | rain 24hr in | rain mn in | humidity % | barometer mb |
| 20260505032312 | 58 | 159 | 0.0 | 1.7 | 0.00 | 0.00 | 0.00 | 41 | 1009.4 |
| 20260505031753 | 58 | 201 | 0.0 | 2.6 | 0.00 | 0.00 | 0.00 | 41 | 1009.4 |
| 20260505031252 | 59 | 209 | 0.0 | 4.3 | 0.00 | 0.00 | 0.00 | 40 | 1009.5 |
| 20260505030751 | 59 | 161 | 0.0 | 1.7 | 0.00 | 0.00 | 0.00 | 40 | 1009.5 |
| 20260505030248 | 59 | 210 | 0.9 | 4.3 | 0.00 | 0.00 | 0.00 | 40 | 1009.5 |
| 20260505030008 | 59 | 184 | 0.0 | 4.3 | 0.00 | 0.00 | 0.00 | 39 | 1009.4 |
| 20260505025807 | 60 | 253 | 0.9 | 4.3 | 0.00 | 0.00 | 0.00 | 39 | 1009.4 |
| 20260505025243 | 60 | 261 | 1.7 | 3.5 | 0.00 | 0.00 | 0.00 | 39 | 1009.5 |
| 20260505024746 | 60 | 211 | 1.7 | 4.3 | 0.00 | 0.00 | 0.00 | 39 | 1009.4 |
| 20260505024246 | 60 | 246 | 1.7 | 4.3 | 0.00 | 0.00 | 0.00 | 39 | 1009.4 |
| 20260505023746 | 60 | 133 | 0.9 | 4.3 | 0.00 | 0.00 | 0.00 | 39 | 1009.4 |
| 20260505023303 | 60 | 229 | 1.7 | 4.3 | 0.00 | 0.00 | 0.00 | 39 | 1009.4 |
| 20260505023025 | 60 | 316 | 0.0 | 4.3 | 0.00 | 0.00 | 0.00 | 39 | 1009.4 |
| 20260505022824 | 60 | 210 | 0.9 | 5.2 | 0.00 | 0.00 | 0.00 | 38 | 1009.4 |
| 20260505022258 | 60 | 216 | 0.9 | 7.8 | 0.00 | 0.00 | 0.00 | 38 | 1009.3 |
| 20260505021759 | 61 | 195 | 0.9 | 7.8 | 0.00 | 0.00 | 0.00 | 38 | 1009.4 |
| 20260505021508 | 60 | 275 | 0.9 | 7.8 | 0.00 | 0.00 | 0.00 | 38 | 1009.5 |
| 20260505021306 | 61 | 282 | 1.7 | 5.2 | 0.00 | 0.00 | 0.00 | 37 | 1009.5 |
| 20260505020807 | 61 | 83 | 1.7 | 4.3 | 0.00 | 0.00 | 0.00 | 38 | 1009.5 |
| 20260505020256 | 61 | 238 | 0.9 | 6.1 | 0.00 | 0.00 | 0.00 | 37 | 1009.5 |
| 20260505020016 | 60 | 259 | 0.0 | 6.1 | 0.00 | 0.00 | 0.00 | 37 | 1009.4 |
| 20260505015815 | 61 | 234 | 0.9 | 6.1 | 0.00 | 0.00 | 0.00 | 37 | 1009.5 |
| 20260505015303 | 61 | 234 | 0.9 | 6.1 | 0.00 | 0.00 | 0.00 | 36 | 1009.2 |
| 20260505014800 | 61 | 158 | 1.7 | 5.2 | 0.00 | 0.00 | 0.00 | 36 | 1009.4 |
| 20260505013756 | 62 | 253 | 0.9 | 1.7 | 0.00 | 0.00 | 0.00 | 35 | 1009.3 |
| 20260505013248 | 62 | 285 | 0.0 | 2.6 | 0.00 | 0.00 | 0.00 | 35 | 1009.1 |
| 20260505012744 | 63 | 188 | 0.0 | 4.3 | 0.00 | 0.00 | 0.00 | 34 | 1009.1 |
| 20260505011759 | 63 | 98 | 1.7 | 7.8 | 0.00 | 0.00 | 0.00 | 33 | 1008.9 |
| 20260505011252 | 63 | 229 | 1.7 | 7.8 | 0.00 | 0.00 | 0.00 | 33 | 1008.7 |
| 20260505010752 | 63 | 223 | 1.7 | 6.1 | 0.00 | 0.00 | 0.00 | 32 | 1008.7 |
| 20260505010304 | 63 | 93 | 0.9 | 7.8 | 0.00 | 0.00 | 0.00 | 32 | 1008.6 |
| 20260505005744 | 63 | 174 | 1.7 | 7.8 | 0.00 | 0.00 | 0.00 | 32 | 1008.5 |
| 20260505005256 | 63 | 267 | 1.7 | 5.2 | 0.00 | 0.00 | 0.00 | 31 | 1008.5 |
| 20260505004757 | 63 | 211 | 0.0 | 0.9 | 0.00 | 0.00 | 0.00 | 31 | 1008.3 |
| 20260505004250 | 63 | 211 | 0.0 | 1.7 | 0.00 | 0.00 | 0.00 | 29 | 1008.1 |
| 20260505003740 | 64 | 227 | 0.0 | 1.7 | 0.00 | 0.00 | 0.00 | 30 | 1008.0 |
| 20260505003259 | 64 | 293 | 0.0 | 1.7 | 0.00 | 0.00 | 0.00 | 29 | 1008.0 |
| 20260505002756 | 64 | 270 | 0.0 | 1.7 | 0.00 | 0.00 | 0.00 | 29 | 1007.8 |
| 20260505002310 | 64 | 232 | 0.9 | 1.7 | 0.00 | 0.00 | 0.00 | 28 | 1007.7 |
| 20260505001750 | 65 | 259 | 0.0 | 1.7 | 0.00 | 0.00 | 0.00 | 28 | 1007.7 |
| 20260505001258 | 65 | 290 | 0.0 | 2.6 | 0.00 | 0.00 | 0.00 | 27 | 1007.6 |
| 20260505000756 | 65 | 300 | 0.0 | 2.6 | 0.00 | 0.00 | 0.00 | 27 | 1007.6 |
| 20260505000311 | 65 | 246 | 0.0 | 2.6 | 0.00 | 0.00 | 0.00 | 27 | 1007.4 |
| 20260505000007 | 65 | 223 | 0.0 | 3.5 | 0.00 | 0.00 | 0.00 | 27 | 1007.4 |
| 20260504235806 | 66 | 146 | 0.9 | 3.5 | 0.00 | 0.00 | 0.00 | 27 | 1007.3 |
| 20260504235300 | 66 | 304 | 0.9 | 3.5 | 0.00 | 0.00 | 0.00 | 27 | 1007.3 |
| 20260504234759 | 66 | 250 | 0.9 | 3.5 | 0.00 | 0.00 | 0.00 | 26 | 1007.2 |
| 20260504234243 | 67 | 158 | 0.0 | 6.1 | 0.00 | 0.00 | 0.00 | 26 | 1007.1 |
| 20260504233804 | 67 | 257 | 1.7 | 6.1 | 0.00 | 0.00 | 0.00 | 25 | 1007.0 |
| 20260504233257 | 67 | 204 | 0.0 | 5.2 | 0.00 | 0.00 | 0.00 | 25 | 1007.1 |
| 20260504233018 | 67 | 253 | 0.9 | 5.2 | 0.00 | 0.00 | 0.00 | 25 | 1007.1 |
| 20260504232818 | 68 | 243 | 1.7 | 5.2 | 0.00 | 0.00 | 0.00 | 24 | 1007.0 |
| 20260504232253 | 68 | 269 | 1.7 | 5.2 | 0.00 | 0.00 | 0.00 | 24 | 1006.8 |
| 20260504231753 | 68 | 211 | 0.9 | 2.6 | 0.00 | 0.00 | 0.00 | 23 | 1006.9 |
| 20260504231244 | 68 | 271 | 0.9 | 7.8 | 0.00 | 0.00 | 0.00 | 24 | 1006.7 |
| 20260504230805 | 69 | 139 | 1.7 | 7.8 | 0.00 | 0.00 | 0.00 | 24 | 1006.7 |
| 20260504230255 | 69 | 236 | 2.6 | 8.7 | 0.00 | 0.00 | 0.00 | 22 | 1006.6 |
| 20260504225754 | 69 | 214 | 2.6 | 7.8 | 0.00 | 0.00 | 0.00 | 22 | 1006.6 |
| 20260504225251 | 69 | 243 | 1.7 | 7.0 | 0.00 | 0.00 | 0.00 | 21 | 1006.5 |
| 20260504224749 | 70 | 214 | 2.6 | 7.0 | 0.00 | 0.00 | 0.00 | 21 | 1006.4 |
| 20260504224247 | 70 | 108 | 1.7 | 7.8 | 0.00 | 0.00 | 0.00 | 21 | 1006.3 |
| 20260504223808 | 70 | 359 | 3.5 | 7.8 | 0.00 | 0.00 | 0.00 | 21 | 1006.3 |
| 20260504223324 | 70 | 184 | 1.7 | 7.0 | 0.00 | 0.00 | 0.00 | 21 | 1006.1 |
| 20260504222756 | 70 | 285 | 1.7 | 8.7 | 0.00 | 0.00 | 0.00 | 20 | 1006.3 |
| 20260504222251 | 70 | 318 | 2.6 | 10.4 | 0.00 | 0.00 | 0.00 | 20 | 1006.2 |
| 20260504221751 | 71 | 121 | 3.5 | 10.4 | 0.00 | 0.00 | 0.00 | 20 | 1006.2 |
| 20260504221249 | 71 | 44 | 1.7 | 10.4 | 0.00 | 0.00 | 0.00 | 20 | 1006.3 |
| 20260504220750 | 72 | 293 | 0.9 | 6.1 | 0.00 | 0.00 | 0.00 | 20 | 1006.3 |
| 20260504220246 | 71 | 295 | 2.6 | 7.0 | 0.00 | 0.00 | 0.00 | 20 | 1006.4 |
| 20260504215745 | 72 | 262 | 3.5 | 7.0 | 0.00 | 0.00 | 0.00 | 19 | 1006.3 |
| 20260504215244 | 72 | 314 | 1.7 | 7.0 | 0.00 | 0.00 | 0.00 | 19 | 1006.4 |
| 20260504214745 | 71 | 236 | 2.6 | 9.6 | 0.00 | 0.00 | 0.00 | 20 | 1006.3 |
| 20260504214503 | 71 | 32 | 2.6 | 9.6 | 0.00 | 0.00 | 0.00 | 20 | 1006.4 |
| 20260504214302 | 71 | 267 | 2.6 | 9.6 | 0.00 | 0.00 | 0.00 | 20 | 1006.4 |
| 20260504213802 | 71 | 275 | 3.5 | 8.7 | 0.00 | 0.00 | 0.00 | 19 | 1006.3 |
| 20260504213257 | 72 | 55 | 2.6 | 7.0 | 0.00 | 0.00 | 0.00 | 19 | 1006.2 |
| 20260504213013 | 71 | 144 | 1.7 | 11.3 | 0.00 | 0.00 | 0.00 | 20 | 1006.4 |
| 20260504212811 | 71 | 150 | 3.5 | 11.3 | 0.00 | 0.00 | 0.00 | 19 | 1006.2 |
| 20260504212248 | 72 | 279 | 2.6 | 13.0 | 0.00 | 0.00 | 0.00 | 20 | 1006.3 |
| 20260504211748 | 71 | 310 | 3.5 | 13.0 | 0.00 | 0.00 | 0.00 | 19 | 1006.3 |
| 20260504211506 | 71 | 264 | 4.3 | 13.0 | 0.00 | 0.00 | 0.00 | 19 | 1006.4 |
| 20260504211305 | 72 | 219 | 3.5 | 9.6 | 0.00 | 0.00 | 0.00 | 19 | 1006.2 |
| 20260504210745 | 72 | 168 | 4.3 | 11.3 | 0.00 | 0.00 | 0.00 | 20 | 1006.3 |
| 20260504210325 | 71 | 249 | 2.6 | 11.3 | 0.00 | 0.00 | 0.00 | 20 | 1006.2 |
| 20260504210002 | 70 | 264 | 3.5 | 9.6 | 0.00 | 0.00 | 0.00 | 20 | 1006.3 |
| 20260504205802 | 71 | 265 | 1.7 | 9.6 | 0.00 | 0.00 | 0.00 | 20 | 1006.3 |
| 20260504205317 | 71 | 352 | 4.3 | 9.6 | 0.00 | 0.00 | 0.00 | 19 | 1006.2 |
| 20260504204752 | 71 | 69 | 2.6 | 10.4 | 0.00 | 0.00 | 0.00 | 19 | 1006.2 |
| 20260504204249 | 72 | 257 | 4.3 | 11.3 | 0.00 | 0.00 | 0.00 | 20 | 1006.2 |
| 20260504203809 | 72 | 312 | 4.3 | 11.3 | 0.00 | 0.00 | 0.00 | 18 | 1006.2 |
| 20260504203246 | 72 | 143 | 3.5 | 8.7 | 0.00 | 0.00 | 0.00 | 20 | 1006.3 |
| 20260504202746 | 71 | 345 | 1.7 | 7.8 | 0.00 | 0.00 | 0.00 | 21 | 1006.2 |
| 20260504202243 | 71 | 192 | 3.5 | 13.0 | 0.00 | 0.00 | 0.00 | 19 | 1006.3 |
| 20260504201807 | 71 | 243 | 2.6 | 13.0 | 0.00 | 0.00 | 0.00 | 19 | 1006.3 |
| 20260504201244 | 72 | 255 | 3.5 | 9.6 | 0.00 | 0.00 | 0.00 | 18 | 1006.4 |
| 20260504200804 | 72 | 107 | 2.6 | 6.1 | 0.00 | 0.00 | 0.00 | 20 | 1006.4 |
| 20260504200258 | 72 | 315 | 1.7 | 7.8 | 0.00 | 0.00 | 0.00 | 19 | 1006.3 |
| 20260504195756 | 72 | 238 | 2.6 | 7.8 | 0.00 | 0.00 | 0.00 | 21 | 1006.4 |
| 20260504195252 | 72 | 124 | 2.6 | 7.0 | 0.00 | 0.00 | 0.00 | 19 | 1006.2 |
| 20260504194750 | 72 | 253 | 2.6 | 11.3 | 0.00 | 0.00 | 0.00 | 20 | 1006.4 |
| 20260504194248 | 72 | 259 | 4.3 | 11.3 | 0.00 | 0.00 | 0.00 | 18 | 1006.3 |
| 20260504193748 | 72 | 114 | 3.5 | 10.4 | 0.00 | 0.00 | 0.00 | 18 | 1006.2 |
| 20260504193246 | 72 | 270 | 4.3 | 10.4 | 0.00 | 0.00 | 0.00 | 21 | 1006.4 |
| 20260504192745 | 72 | 279 | 4.3 | 10.4 | 0.00 | 0.00 | 0.00 | 18 | 1006.3 |
| 20260504192304 | 72 | 1 | 2.6 | 9.6 | 0.00 | 0.00 | 0.00 | 18 | 1006.3 |
| 20260504191743 | 72 | 218 | 2.6 | 15.6 | 0.00 | 0.00 | 0.00 | 19 | 1006.3 |
| 20260504191257 | 72 | 297 | 3.5 | 15.6 | 0.00 | 0.00 | 0.00 | 18 | 1006.3 |
| 20260504190756 | 72 | 230 | 3.5 | 10.4 | 0.00 | 0.00 | 0.00 | 19 | 1006.5 |
| 20260504190248 | 72 | 274 | 2.6 | 15.6 | 0.00 | 0.00 | 0.00 | 18 | 1006.5 |
| 20260504185748 | 72 | 155 | 7.0 | 15.6 | 0.00 | 0.00 | 0.00 | 17 | 1006.5 |
| 20260504185244 | 72 | 84 | 3.5 | 15.6 | 0.00 | 0.00 | 0.00 | 18 | 1006.3 |
| 20260504184745 | 72 | 243 | 3.5 | 12.2 | 0.00 | 0.00 | 0.00 | 17 | 1006.5 |
| 20260504184243 | 72 | 231 | 1.7 | 12.2 | 0.00 | 0.00 | 0.00 | 18 | 1006.4 |
| 20260504183754 | 72 | 351 | 2.6 | 9.6 | 0.00 | 0.00 | 0.00 | 18 | 1006.5 |
| 20260504183312 | 71 | 297 | 3.5 | 9.6 | 0.00 | 0.00 | 0.00 | 18 | 1006.6 |
| 20260504183013 | 71 | 226 | 2.6 | 10.4 | 0.00 | 0.00 | 0.00 | 19 | 1006.7 |
| 20260504182811 | 71 | 274 | 2.6 | 10.4 | 0.00 | 0.00 | 0.00 | 18 | 1006.5 |
| 20260504182248 | 71 | 144 | 1.7 | 12.2 | 0.00 | 0.00 | 0.00 | 19 | 1006.6 |
| 20260504181804 | 71 | 271 | 5.2 | 12.2 | 0.00 | 0.00 | 0.00 | 18 | 1006.9 |
| 20260504181257 | 71 | 335 | 4.3 | 13.0 | 0.00 | 0.00 | 0.00 | 18 | 1006.4 |
| 20260504180757 | 71 | 286 | 5.2 | 13.0 | 0.00 | 0.00 | 0.00 | 18 | 1006.6 |
| 20260504180252 | 70 | 273 | 1.7 | 10.4 | 0.00 | 0.00 | 0.00 | 20 | 1006.9 |
| 20260504175754 | 70 | 96 | 4.3 | 10.4 | 0.00 | 0.00 | 0.00 | 17 | 1006.8 |
| 20260504175311 | 70 | 244 | 4.3 | 12.2 | 0.00 | 0.00 | 0.00 | 17 | 1006.7 |
| 20260504174752 | 70 | 240 | 3.5 | 12.2 | 0.00 | 0.00 | 0.00 | 17 | 1006.9 |
| 20260504174250 | 70 | 244 | 3.5 | 14.8 | 0.00 | 0.00 | 0.00 | 17 | 1006.8 |
| 20260504173748 | 70 | 278 | 4.3 | 14.8 | 0.00 | 0.00 | 0.00 | 18 | 1006.9 |
| 20260504173246 | 69 | 235 | 2.6 | 11.3 | 0.00 | 0.00 | 0.00 | 18 | 1006.9 |
| 20260504172747 | 69 | 231 | 4.3 | 10.4 | 0.00 | 0.00 | 0.00 | 18 | 1007.0 |
| 20260504172320 | 69 | 102 | 4.3 | 10.4 | 0.00 | 0.00 | 0.00 | 19 | 1007.0 |
| 20260504171758 | 69 | 196 | 4.3 | 10.4 | 0.00 | 0.00 | 0.00 | 20 | 1007.2 |
| 20260504171254 | 69 | 224 | 3.5 | 8.7 | 0.00 | 0.00 | 0.00 | 19 | 1007.4 |
| 20260504170755 | 69 | 286 | 3.5 | 14.8 | 0.00 | 0.00 | 0.00 | 21 | 1007.2 |
| 20260504170253 | 68 | 240 | 5.2 | 14.8 | 0.00 | 0.00 | 0.00 | 20 | 1007.4 |
| 20260504160243 | 66 | 158 | 3.5 | 12.2 | 0.00 | 0.00 | 0.00 | 22 | 1007.7 |
| 20260504150742 | 65 | 226 | 3.5 | 11.3 | 0.00 | 0.00 | 0.00 | 24 | 1008.3 |
| 20260504150253 | 64 | 254 | 4.3 | 11.3 | 0.00 | 0.00 | 0.00 | 24 | 1008.3 |
| 20260504141251 | 61 | 311 | 1.7 | 8.7 | 0.00 | 0.00 | 0.00 | 29 | 1009.0 |
| 20260504140752 | 61 | 253 | 1.7 | 5.2 | 0.00 | 0.00 | 0.00 | 30 | 1009.2 |
| 20260504140249 | 61 | 302 | 1.7 | 7.0 | 0.00 | 0.00 | 0.00 | 29 | 1009.1 |
| 20260504130802 | 55 | 248 | 1.7 | 7.8 | 0.00 | 0.02 | 0.00 | 37 | 1009.4 |
| 20260504130256 | 54 | 312 | 1.7 | 6.1 | 0.00 | 0.02 | 0.00 | 37 | 1009.6 |
| 20260504120247 | 52 | 51 | 1.7 | 7.0 | 0.00 | 0.02 | 0.00 | 40 | 1009.7 |
| 20260504110304 | 44 | 184 | 0.0 | 0.0 | 0.00 | 0.02 | 0.00 | 56 | 1009.7 |
| 20260504100314 | 46 | 177 | 0.0 | 1.7 | 0.00 | 0.02 | 0.00 | 47 | 1009.7 |
| 20260504081753 | 45 | 305 | 0.9 | 3.5 | 0.00 | 0.02 | 0.00 | 46 | 1009.9 |
| 20260504081250 | 45 | 200 | 0.0 | 2.6 | 0.00 | 0.02 | 0.00 | 47 | 1009.8 |
| 20260504080807 | 45 | 274 | 0.0 | 0.9 | 0.00 | 0.02 | 0.00 | 46 | 1009.8 |
| 20260504080243 | 45 | 281 | 0.0 | 0.9 | 0.00 | 0.02 | 0.00 | 44 | 1009.8 |
| 20260504070321 | 45 | 250 | 0.0 | 0.9 | 0.00 | 0.02 | 0.00 | 42 | 1009.8 |
| 20260504060239 | 42 | 282 | 0.0 | 0.9 | 0.00 | 0.02 | 0.00 | 47 | 1009.9 |
| 20260504050748 | 40 | 238 | 0.9 | 2.6 | 0.00 | 0.02 | 0.00 | 55 | 1009.9 |
| 20260504050300 | 39 | 115 | 0.0 | 3.5 | 0.00 | 0.02 | 0.00 | 55 | 1010.0 |
| 20260504045758 | 39 | 180 | 0.0 | 3.5 | 0.00 | 0.02 | 0.00 | 54 | 1010.0 |
| 20260504045253 | 39 | 264 | 0.0 | 4.3 | 0.00 | 0.02 | 0.00 | 55 | 1010.0 |
| 20260504044753 | 39 | 247 | 0.0 | 4.3 | 0.00 | 0.02 | 0.00 | 54 | 1010.0 |
| 20260504044247 | 38 | 330 | 0.9 | 1.7 | 0.00 | 0.02 | 0.00 | 56 | 1010.1 |
| 20260504043747 | 37 | 250 | 0.0 | 0.9 | 0.00 | 0.02 | 0.00 | 58 | 1010.0 |
| 20260504043245 | 37 | 256 | 0.0 | 0.9 | 0.00 | 0.02 | 0.00 | 58 | 1010.1 |
| 20260504043009 | 37 | 245 | 0.0 | 0.9 | 0.00 | 0.02 | 0.00 | 57 | 1010.4 |
| 20260504042808 | 38 | 246 | 0.0 | 0.9 | 0.00 | 0.02 | 0.00 | 58 | 1010.0 |
| 20260504042243 | 38 | 245 | 0.9 | 0.9 | 0.00 | 0.02 | 0.00 | 57 | 1010.0 |
| 20260504041741 | 38 | 251 | 0.0 | 0.9 | 0.00 | 0.02 | 0.00 | 56 | 1010.0 |
| 20260504041254 | 38 | 244 | 0.0 | 1.7 | 0.00 | 0.02 | 0.00 | 55 | 1009.9 |
| 20260504040755 | 38 | 231 | 0.0 | 1.7 | 0.00 | 0.02 | 0.00 | 55 | 1009.8 |
| 20260504040310 | 37 | 248 | 0.0 | 0.9 | 0.00 | 0.02 | 0.00 | 56 | 1009.8 |
| 20260504040029 | 37 | 245 | 0.0 | 0.9 | 0.00 | 0.02 | 0.02 | 56 | 1010.2 |
| 20260504035810 | 38 | 250 | 0.0 | 0.9 | 0.00 | 0.02 | 0.02 | 56 | 1009.9 |
| 20260504035246 | 38 | 250 | 0.0 | 0.9 | 0.00 | 0.02 | 0.02 | 57 | 1009.9 |
| 20260504034748 | 38 | 251 | 0.0 | 0.9 | 0.00 | 0.02 | 0.02 | 54 | 1009.8 |
| 20260504034507 | 38 | 251 | 0.0 | 0.9 | 0.00 | 0.02 | 0.02 | 54 | 1010.3 |
| 20260504034306 | 38 | 251 | 0.0 | 0.9 | 0.00 | 0.02 | 0.02 | 54 | 1009.7 |
| 20260504033746 | 38 | 251 | 0.0 | 0.9 | 0.00 | 0.02 | 0.02 | 55 | 1009.8 |
| 20260504033243 | 39 | 251 | 0.0 | 0.9 | 0.00 | 0.02 | 0.02 | 53 | 1009.8 |
| 20260504032744 | 39 | 251 | 0.0 | 0.9 | 0.00 | 0.02 | 0.02 | 52 | 1009.9 |